Location: Carrer del Canonge
(41.4901°N, 2.2931°E)
Time: 04:13:17
(UTC+00:00)

Cosmos 2285 Rocket - Pass Details

Date: 18 September 2020
Orbit: 970 x 1000 km, 74.0° (Epoch: 25 October)

Event Time Altitude Azimuth Distance (km) Brightness Sun altitude
Rises 19:30:14 0° 177° (S) 3,647 6.8 -18.4°
Reaches altitude 10° 19:32:52 10° 171° (S) 2,706 6.0 -18.9°
Maximum altitude 19:38:44 43° 101° (ESE) 1,332 4.2 -19.9°
Drops below altitude 10° 19:44:39 10° 32° (NNE) 2,736 6.2 -20.9°
Sets 19:47:19 0° 26° (NNE) 3,693 7.0 -21.4°
